[[{"header":{"parameterUnit":"m.s-1","parameterCategory":1,"la1":30.2991,"la2":30.254,"lo1":-89.0895,"lo2":-89.0444,"dy":0.0017,"dx":0.0017,"nx":28,"ny":28,"refTime":"2023-03-29T21:00:00:Z","depth":0,"parameterNumber":2,"parameterNumberName":"U-component_of_WINDS"},"data":[0,0,0,0,0,0,0,0,0,0,0,0,0,0,0,0,0,0,0,0,0,0,0,0,0,0,0,0,0,0,0,0,0,0,0,0,0,0,0,0,0,0,0,0,0,0,0,0,0,0,0,0,0,0,0,0,0,0,-5.2431,-5.2431,0,-5.2444,-5.2444,-5.2444,-5.2354,-5.2351,-5.2349,-5.2346,-5.236,-5.2363,-5.2366,0,0,0,0,0,0,0,0,0,0,0,0,0,-5.2331,-5.2334,-5.2431,-5.2431,-5.2432,-5.2444,-5.2444,-5.2444,-5.2354,-5.2351,-5.2348,-5.2345,-5.2359,-5.2363,-5.2366,0,0,0,0,0,0,0,0,0,0,0,0,0,-5.2363,-5.2334,-5.2431,-5.2388,-5.2384,-5.2444,-5.2444,-5.2445,-5.2355,-5.2351,-5.2347,-5.2343,-5.2358,-5.2362,-5.2366,-5.2469,0,0,-5.2379,-5.2381,0,0,0,0,0,0,0,0,-5.2361,-5.2366,-5.2394,-5.2391,-5.2387,-5.2393,-5.2414,-5.2453,-5.2356,-5.2366,-5.2346,-5.2342,-5.2375,-5.2377,-5.2388,-5.2469,-5.247,-5.238,-5.2382,-5.2384,-5.2385,0,0,0,0,0,0,0,-5.2359,-5.2365,-5.2436,-5.2395,-5.239,-5.2369,-5.2369,-5.2421,-5.2392,-5.2365,-5.2358,-5.2361,-5.2372,-5.2384,-5.2388,-5.247,-5.2379,-5.2383,-5.2386,-5.2387,-5.2638,-5.2642,0,0,0,0,0,0,-5.2362,-5.2364,-5.2436,-5.2437,-5.2364,-5.2374,-5.2374,-5.2395,-5.2391,-5.2386,-5.2364,-5.2357,-5.2379,-5.2383,-5.2388,-5.2507,-5.2384,-5.2388,-5.239,-5.2634,-5.2639,-5.2643,0,0,0,0,0,0,-5.236,-5.2369,-5.2435,-5.2399,-5.2405,-5.238,-5.2404,-5.2397,-5.2409,-5.239,-5.2385,-5.2382,-5.2376,-5.2382,-5.2449,-5.2506,-5.239,-5.2393,-5.2629,-5.2635,-5.2641,-5.2746,0,0,0,0,0,0,-5.2358,-5.2369,-5.2407,-5.24,-5.2408,-5.2496,-5.2408,-5.24,-5.2417,-5.2407,-5.2405,-5.2402,-5.2374,-5.2444,-5.2454,-5.251,-5.2397,-5.2623,-5.2632,-5.2639,-5.2737,-5.2755,-5.277,0,0,0,0,0,-5.2355,-5.2436,-5.2409,-5.2418,-5.2454,-5.25,-5.2504,-5.2469,-5.2422,-5.246,-5.2448,-5.2402,-5.2499,-5.2451,-5.2462,-5.252,-5.262,-5.2629,-5.2638,-5.273,-5.2752,-5.277,0,0,0,0,0,0,-5.2449,-5.2434,-5.2404,-5.2486,-5.2495,-5.2484,-5.253,-5.2494,-5.2516,-5.2506,-5.2463,-5.2464,-5.2539,-5.2537,-5.2484,-5.262,-5.2551,-5.2563,-5.2617,-5.2638,-5.2654,-5.2652,-5.24,0,0,0,0,0,-5.248,-5.2518,-5.2503,-5.2576,-5.2582,-5.2557,-5.2575,-5.2548,-5.2556,-5.2559,-5.2552,-5.2561,-5.2594,-5.2616,-5.2646,-5.2738,-5.2737,-5.2784,-5.28,-5.2814,-5.2824,-5.2873,-5.2894,-5.2674,-5.2674,-5.2674,0,0,-5.2543,-5.2539,-5.2565,-5.2595,-5.2599,-5.2639,-5.256,-5.2606,-5.2635,-5.2566,-5.2628,-5.2625,-5.2633,-5.2714,-5.2749,-5.2714,-5.2885,-5.2826,-5.2837,-5.2839,-5.2885,-5.2906,-5.2924,-5.268,-5.2679,-5.2678,0,0,-5.2678,-5.2679,-5.274,-5.2747,-5.2754,-5.2736,-5.2752,-5.2748,-5.2742,-5.2805,-5.2754,-5.279,-5.2847,-5.2855,-5.2867,-5.3009,-5.2968,-5.3021,-5.3105,-5.3154,-5.3171,-5.3186,-5.3236,-5.3255,-5.3031,-5.3031,-5.3032,0,-5.2755,-5.2813,-5.2777,-5.2826,-5.2841,-5.2782,-5.2844,-5.2852,-5.2869,-5.288,-5.2842,-5.2914,-5.2915,-5.2997,-5.3032,-5.3044,-5.306,-5.3018,-5.3172,-5.3186,-5.32,-5.3247,-5.3266,-5.3038,-5.3037,-5.3036,-5.3036,0,-5.2907,-5.2949,-5.2998,-5.3015,-5.3036,-5.3092,-5.3065,-5.3091,-5.3065,-5.3052,-5.3118,-5.3118,-5.3146,-5.3165,-5.3139,-5.3244,-5.3222,-5.3179,-5.3108,-5.3228,-5.3271,-5.3289,-5.3047,-5.3044,-5.3042,-5.3041,0,0,-5.3097,-5.3097,-5.3115,-5.3123,-5.3128,-5.316,-5.3215,-5.3243,-5.3265,-5.3281,-5.3325,-5.3377,-5.3337,-5.3351,-5.3326,-5.3369,-5.3482,-5.332,-5.332,-5.3349,-5.3597,-5.3628,-5.3649,-5.3456,-5.3459,-5.3462,-5.3596,0,-5.3227,-5.3318,-5.3289,-5.3382,-5.342,-5.3367,-5.3414,-5.3424,-5.3415,-5.3447,-5.3437,-5.3474,-5.342,-5.3428,-5.3468,-5.3459,-5.353,-5.345,-5.3496,-5.3498,-5.3492,-5.3672,-5.3704,-5.383,-5.3613,-5.3616,-5.3618,0,-5.3389,-5.3411,-5.3508,-5.3508,-5.3523,-5.3566,-5.359,-5.3622,-5.3633,-5.3624,-5.3641,-5.3608,-5.3662,-5.3596,-5.3671,-5.3616,-5.3635,-5.3634,-5.3638,-5.3638,-5.3563,-5.3675,-5.3869,-5.3888,-5.3644,-5.3642,-5.364,0,-5.3516,-5.357,-5.3635,-5.3643,-5.3646,-5.3678,-5.3681,-5.3688,-5.3707,-5.373,-5.3742,-5.3771,-5.3786,-5.381,-5.3786,-5.374,-5.3865,-5.3796,-5.3859,-5.3859,-5.3884,-5.3882,-5.4082,-5.3901,-5.3901,-5.3901,-5.39,0,-5.3662,-5.3723,-5.3692,-5.3731,-5.3798,-5.3767,-5.3834,-5.3831,-5.3839,-5.3877,-5.3835,-5.3872,-5.384,-5.3875,-5.3858,-5.3923,-5.3931,-5.3925,-5.3918,-5.3927,-5.3927,-5.3935,-5.3925,-5.3906,-5.3904,-5.3903,-5.3903,0,-5.3813,-5.3794,-5.3861,-5.386,-5.3861,-5.3911,-5.3909,-5.3947,-5.3937,-5.3986,-5.3996,-5.398,-5.402,-5.4,-5.4041,-5.403,-5.4113,-5.4097,-5.4109,-5.4103,-5.4166,-5.416,-5.4375,-5.4402,-5.4207,-5.4209,-5.4211,0,-5.3905,-5.3951,-5.3955,-5.3978,-5.3984,-5.4021,-5.4041,-5.4014,-5.4036,-5.4054,-5.4089,-5.4125,-5.4152,-5.4219,-5.4211,-5.4243,-5.4225,-5.4299,-5.423,-5.4237,-5.4224,-5.4221,-5.4225,-5.4312,-5.4314,-5.4316,-5.4318,0,-5.4071,-5.4061,-5.4091,-5.4119,-5.4145,-5.4166,-5.4183,-5.4205,-5.4177,-5.4206,-5.4246,-5.4267,-5.431,-5.4347,-5.4375,-5.4379,-5.4344,-5.4341,-5.4356,-5.4363,-5.4367,-5.4364,-5.4144,-5.4334,-5.4333,-5.4331,-5.4331,-5.433,-5.4194,-5.4232,-5.4241,-5.4277,-5.4288,-5.4306,-5.4341,-5.4336,-5.4369,-5.4401,-5.4384,-5.4431,-5.4443,-5.4478,-5.4487,-5.4524,-5.4495,-5.4518,-5.4523,-5.4529,-5.4536,-5.4365,-5.453,-5.4529,-5.4529,-5.4528,-5.4528,0,-5.4356,-5.436,-5.4394,-5.442,-5.4449,-5.4415,-5.4434,-5.446,-5.4502,-5.4516,-5.4544,-5.4591,-5.4628,-5.4625,-5.4658,-5.4689,-5.4674,-5.4698,-5.4694,-5.4696,-5.4562,-5.4543,-5.471,-5.471,-5.471,-5.471,-5.471,-5.471,-5.4443,-5.4506,-5.4497,-5.4566,-5.457,-5.4616,-5.4629,-5.4646,-5.4657,-5.4712,-5.4742,-5.474,-5.4748,-5.4782,-5.4815,-5.4813,-5.4827,-5.4857,-5.4849,-5.4723,-5.4705,-5.4688,-5.467,-5.4861,-5.4861,-5.498,-5.4981,-5.4982]},{"header":{"parameterUnit":"m.s-1","parameterCategory":1,"la1":30.2991,"la2":30.254,"lo1":-89.0895,"lo2":-89.0444,"dy":0.0017,"dx":0.0017,"nx":28,"ny":28,"refTime":"2023-03-29T21:00:00:Z","depth":0,"parameterNumber":3,"parameterNumberName":"V-component_of_WINDS"},"data":[0,0,0,0,0,0,0,0,0,0,0,0,0,0,0,0,0,0,0,0,0,0,0,0,0,0,0,0,0,0,0,0,0,0,0,0,0,0,0,0,0,0,0,0,0,0,0,0,0,0,0,0,0,0,0,0,0,0,2.2526,2.2527,0,2.2563,2.2563,2.2564,2.2627,2.2628,2.2629,2.263,2.2663,2.2663,2.2662,0,0,0,0,0,0,0,0,0,0,0,0,0,2.2508,2.2508,2.2526,2.2527,2.2527,2.2563,2.2563,2.2564,2.2626,2.2628,2.2629,2.2631,2.2663,2.2663,2.2662,0,0,0,0,0,0,0,0,0,0,0,0,0,2.2527,2.2508,2.2526,2.2563,2.2567,2.2563,2.2563,2.2564,2.2626,2.2628,2.263,2.2631,2.2663,2.2663,2.2662,2.2624,0,0,2.2661,2.2661,0,0,0,0,0,0,0,0,2.2526,2.2528,2.2557,2.256,2.2565,2.2592,2.2569,2.2584,2.2626,2.2603,2.263,2.2632,2.2638,2.2639,2.2642,2.2626,2.2627,2.2661,2.2661,2.2661,2.2661,0,0,0,0,0,0,0,2.2525,2.2527,2.2541,2.2557,2.2562,2.2577,2.2581,2.2572,2.261,2.2605,2.261,2.2614,2.264,2.2642,2.2643,2.2628,2.2661,2.2661,2.2661,2.266,2.2584,2.2582,0,0,0,0,0,0,2.2518,2.2525,2.254,2.2542,2.2549,2.2576,2.2581,2.2581,2.261,2.2616,2.2612,2.2617,2.2642,2.2644,2.2645,2.2603,2.2661,2.266,2.266,2.2586,2.2583,2.2582,0,0,0,0,0,0,2.2518,2.2519,2.2538,2.2535,2.2538,2.2574,2.2574,2.2581,2.2584,2.2615,2.2622,2.2608,2.2644,2.2645,2.263,2.2605,2.266,2.266,2.2588,2.2585,2.2582,2.2519,0,0,0,0,0,0,2.2517,2.2519,2.2505,2.2534,2.2538,2.2523,2.2573,2.2581,2.2584,2.259,2.2613,2.2619,2.2645,2.263,2.2629,2.2606,2.266,2.259,2.2587,2.2583,2.2523,2.2514,2.2507,0,0,0,0,0,2.2516,2.2484,2.2504,2.2505,2.2522,2.2521,2.2524,2.2556,2.2581,2.2568,2.2588,2.2618,2.2608,2.2628,2.2628,2.2603,2.2592,2.2588,2.2584,2.2527,2.2516,2.2507,0,0,0,0,0,0,2.2449,2.2488,2.2511,2.2488,2.2501,2.2532,2.2516,2.2543,2.2548,2.2553,2.2592,2.2597,2.2576,2.2589,2.261,2.2569,2.2605,2.26,2.2562,2.2552,2.2543,2.254,2.2659,0,0,0,0,0,2.2432,2.2429,2.2463,2.2439,2.2445,2.2479,2.248,2.2504,2.2519,2.2524,2.2544,2.2556,2.2556,2.2554,2.2556,2.2526,2.2532,2.2509,2.2501,2.2494,2.2489,2.2476,2.2466,2.2568,2.2568,2.2568,0,0,2.2395,2.2417,2.2412,2.2426,2.244,2.2435,2.2483,2.2476,2.2473,2.2523,2.251,2.2525,2.2541,2.2518,2.2509,2.2527,2.2463,2.2489,2.2483,2.2482,2.247,2.2461,2.2452,2.2565,2.2566,2.2566,0,0,2.2327,2.2343,2.2325,2.2338,2.2359,2.2382,2.2378,2.2406,2.2418,2.2406,2.2444,2.244,2.2439,2.2449,2.2454,2.2393,2.242,2.2392,2.2348,2.2334,2.2326,2.2319,2.2297,2.2289,2.2388,2.2388,2.2387,0,2.2278,2.2275,2.2312,2.2304,2.2309,2.2357,2.2339,2.2349,2.2368,2.237,2.2391,2.2392,2.2406,2.2387,2.2373,2.2375,2.2371,2.2389,2.2324,2.2318,2.2312,2.2292,2.2283,2.2384,2.2384,2.2385,2.2385,0,2.2215,2.2211,2.2195,2.2214,2.2218,2.2204,2.224,2.2239,2.2263,2.2284,2.2272,2.2291,2.2298,2.2295,2.2318,2.228,2.2291,2.2318,2.2354,2.2298,2.228,2.2272,2.2379,2.238,2.2381,2.2382,0,0,2.2103,2.2146,2.2139,2.2149,2.2176,2.2174,2.2163,2.2172,2.217,2.2182,2.2174,2.2173,2.2199,2.2205,2.2229,2.2217,2.2168,2.2245,2.2246,2.223,2.2127,2.2107,2.2097,2.2187,2.2186,2.2185,2.2126,0,2.204,2.2025,2.206,2.2036,2.2034,2.208,2.2071,2.2086,2.2106,2.2106,2.2127,2.2127,2.216,2.2164,2.2154,2.2176,2.2147,2.2181,2.2179,2.2178,2.2173,2.2088,2.2066,2.2009,2.2119,2.2118,2.2117,0,2.1964,2.1974,2.1951,2.1981,2.1982,2.1973,2.1985,2.1985,2.2003,2.2018,2.2026,2.2056,2.2047,2.2083,2.2071,2.2093,2.2095,2.2105,2.2104,2.2104,2.2144,2.2085,2.1992,2.1984,2.2106,2.2107,2.2108,0,2.1885,2.1893,2.1881,2.1888,2.1923,2.1916,2.193,2.195,2.1954,2.1964,2.1967,2.1975,2.1979,2.1984,2.2015,2.2039,2.2,2.2038,2.2012,2.2011,2.2001,2.2001,2.1906,2.2002,2.2002,2.2003,2.2003,0,2.1811,2.1794,2.1846,2.1838,2.1822,2.1862,2.1844,2.1863,2.1881,2.1877,2.1917,2.1913,2.1955,2.1954,2.1979,2.1966,2.1967,2.1979,2.1985,2.1975,2.1973,2.1976,2.198,2.2,2.2001,2.2001,2.2002,0,2.1719,2.1753,2.1743,2.1778,2.1786,2.1773,2.1802,2.1796,2.182,2.1814,2.1815,2.1851,2.1853,2.1886,2.1894,2.191,2.1887,2.1901,2.1881,2.1886,2.1858,2.186,2.1761,2.175,2.1853,2.1852,2.1851,0,2.1669,2.1658,2.1693,2.1694,2.1707,2.1708,2.1713,2.1753,2.1756,2.1777,2.1769,2.1775,2.1781,2.1782,2.1809,2.1815,2.183,2.1795,2.1831,2.1821,2.1829,2.1829,2.1829,2.1786,2.1785,2.1784,2.1783,0,2.1577,2.1595,2.1602,2.1614,2.1619,2.163,2.1644,2.1642,2.1686,2.1687,2.1691,2.1696,2.1707,2.1712,2.1724,2.1737,2.1767,2.1772,2.1766,2.1755,2.1744,2.175,2.186,2.1774,2.1775,2.1775,2.1776,2.1776,2.1505,2.1498,2.1522,2.1528,2.1543,2.1555,2.1552,2.1576,2.1581,2.1593,2.1616,2.1616,2.1636,2.1656,2.1667,2.1668,2.1686,2.1677,2.1675,2.1672,2.1667,2.1745,2.167,2.167,2.1671,2.1671,2.1671,0,2.1416,2.1434,2.1439,2.1458,2.1463,2.1493,2.151,2.1512,2.1512,2.1529,2.1536,2.1541,2.1546,2.1574,2.1583,2.1578,2.1592,2.1579,2.1579,2.1582,2.165,2.1654,2.1567,2.1567,2.1567,2.1567,2.1567,2.1568,2.137,2.136,2.1381,2.1379,2.1398,2.14,2.1407,2.1418,2.1433,2.1437,2.1443,2.1461,2.1483,2.1494,2.15,2.1508,2.151,2.1492,2.1504,2.1567,2.1577,2.1586,2.1591,2.1492,2.1492,2.1436,2.1436,2.1435]}]]